• In Hungary
  • List of Countries
  • For 7 days
  • Water Temperature
  • Satellite Maps
  • Weather Map
  • News
  • Weather Widgets
  • user-avatar
    Login

    Hourly Weather Stockton

    Today, 23 September, Sunday

    Time Temperature Precipitation Wind Pressure Humidity
    00:00 +21°C° 0 mm 1 mps 759 mmHg 44%
    01:00 +21°C° 0 mm 1 mps 759 mmHg 46%
    02:00 +20°C° 0 mm 1 mps 759 mmHg 47%
    03:00 +20°C° 0 mm 1 mps 759 mmHg 48%
    04:00 +19°C° 0 mm 1 mps 759 mmHg 49%
    05:00 +20°C° 0 mm 1 mps 759 mmHg 49%
    06:00 +20°C° 0 mm 1 mps 759 mmHg 49%
    07:00 +20°C° 0 mm 1 mps 759 mmHg 49%
    08:00 +23°C° 0 mm 1 mps 759 mmHg 42%
    09:00 +26°C° 0 mm 1 mps 759 mmHg 35%
    10:00 +29°C° 0 mm 1 mps 759 mmHg 27%
    11:00 +31°C° 0 mm 2 mps 759 mmHg 24%
    12:00 +34°C° 0 mm 2 mps 758 mmHg 20%
    13:00 +35°C° 0 mm 2 mps 758 mmHg 17%
    14:00 +35°C° 0 mm 2 mps 757 mmHg 16%
    15:00 +35°C° 0 mm 2 mps 757 mmHg 16%
    16:00 +35°C° 0 mm 3 mps 757 mmHg 15%
    17:00 +31°C° 0 mm 2 mps 757 mmHg 20%
    18:00 +28°C° 0 mm 2 mps 757 mmHg 24%
    19:00 +25°C° 0 mm 2 mps 757 mmHg 28%
    20:00 +24°C° 0 mm 2 mps 758 mmHg 31%
    21:00 +23°C° 0 mm 2 mps 758 mmHg 33%
    22:00 +21°C° 0 mm 2 mps 758 mmHg 36%
    23:00 +20°C° 0 mm 2 mps 758 mmHg 37%

    Tomorrow, 24 September, Monday

    Time Temperature Precipitation Wind Pressure Humidity
    00:00 +21°C° 0 mm 1 mps 758 mmHg 38%
    01:00 +20°C° 0 mm 1 mps 758 mmHg 38%
    02:00 +20°C° 0 mm 1 mps 758 mmHg 39%
    03:00 +19°C° 0 mm 1 mps 758 mmHg 40%
    04:00 +19°C° 0 mm 1 mps 758 mmHg 41%
    05:00 +19°C° 0 mm 1 mps 758 mmHg 39%
    06:00 +20°C° 0 mm 1 mps 758 mmHg 38%
    07:00 +20°C° 0 mm 1 mps 759 mmHg 37%
    08:00 +23°C° 0 mm 1 mps 758 mmHg 30%
    09:00 +26°C° 0 mm 2 mps 758 mmHg 24%
    10:00 +29°C° 0 mm 2 mps 758 mmHg 18%
    11:00 +31°C° 0 mm 2 mps 758 mmHg 16%
    12:00 +34°C° 0 mm 2 mps 758 mmHg 14%
    13:00 +36°C° 0 mm 2 mps 757 mmHg 12%
    14:00 +36°C° 0 mm 2 mps 757 mmHg 11%
    15:00 +36°C° 0 mm 2 mps 757 mmHg 11%
    16:00 +36°C° 0 mm 2 mps 757 mmHg 10%
    17:00 +32°C° 0 mm 2 mps 757 mmHg 13%
    18:00 +30°C° 0 mm 2 mps 757 mmHg 15%
    19:00 +27°C° 0 mm 2 mps 758 mmHg 18%
    20:00 +26°C° 0 mm 2 mps 758 mmHg 21%
    21:00 +24°C° 0 mm 2 mps 758 mmHg 25%
    22:00 +23°C° 0 mm 2 mps 759 mmHg 28%
    23:00 +22°C° 0 mm 1 mps 759 mmHg 30%

    Day after tomorrow, 25 September, Tuesday

    Time Temperature Precipitation Wind Pressure Humidity
    00:00 +22°C° 0 mm 1 mps 759 mmHg 32%
    01:00 +21°C° 0 mm 1 mps 758 mmHg 33%
    02:00 +21°C° 0 mm 1 mps 759 mmHg 34%
    03:00 +20°C° 0 mm 1 mps 759 mmHg 35%
    04:00 +20°C° 0 mm 1 mps 759 mmHg 36%
    05:00 +20°C° 0 mm 1 mps 759 mmHg 34%
    06:00 +21°C° 0 mm 1 mps 759 mmHg 33%
    07:00 +21°C° 0 mm 1 mps 760 mmHg 32%
    08:00 +24°C° 0 mm 1 mps 760 mmHg 26%
    09:00 +27°C° 0 mm 1 mps 760 mmHg 20%
    10:00 +30°C° 0 mm 1 mps 760 mmHg 14%
    11:00 +32°C° 0 mm 2 mps 759 mmHg 13%
    12:00 +35°C° 0 mm 2 mps 759 mmHg 11%
    13:00 +37°C° 0 mm 2 mps 758 mmHg 9%
    14:00 +38°C° 0 mm 2 mps 758 mmHg 9%
    15:00 +38°C° 0 mm 2 mps 758 mmHg 9%
    16:00 +38°C° 0 mm 2 mps 758 mmHg 9%
    17:00 +35°C° 0 mm 2 mps 758 mmHg 11%
    18:00 +31°C° 0 mm 2 mps 759 mmHg 14%
    19:00 +28°C° 0 mm 2 mps 759 mmHg 17%
    20:00 +27°C° 0 mm 2 mps 760 mmHg 20%
    21:00 +25°C° 0 mm 2 mps 760 mmHg 22%
    22:00 +24°C° 0 mm 2 mps 760 mmHg 25%
    23:00 +23°C° 0 mm 1 mps 760 mmHg 26%

    26 September, Wednesday

    Time Temperature Precipitation Wind Pressure Humidity
    00:00 +23°C° 0 mm 1 mps 760 mmHg 27%
    01:00 +22°C° 0 mm 1 mps 760 mmHg 28%
    02:00 +22°C° 0 mm 1 mps 760 mmHg 28%
    03:00 +21°C° 0 mm 1 mps 760 mmHg 28%
    04:00 +21°C° 0 mm 1 mps 760 mmHg 28%
    05:00 +21°C° 0 mm 1 mps 760 mmHg 28%
    06:00 +22°C° 0 mm 1 mps 761 mmHg 28%
    07:00 +22°C° 0 mm 1 mps 761 mmHg 28%
    08:00 +26°C° 0 mm 1 mps 761 mmHg 23%
    09:00 +29°C° 0 mm 1 mps 761 mmHg 19%
    10:00 +32°C° 0 mm 1 mps 761 mmHg 14%
    11:00 +34°C° 0 mm 1 mps 760 mmHg 13%
    12:00 +36°C° 0 mm 1 mps 760 mmHg 11%
    13:00 +39°C° 0 mm 1 mps 759 mmHg 9%
    14:00 +39°C° 0 mm 1 mps 759 mmHg 9%
    15:00 +39°C° 0 mm 2 mps 759 mmHg 9%
    16:00 +39°C° 0 mm 2 mps 758 mmHg 8%
    17:00 +36°C° 0 mm 2 mps 759 mmHg 11%
    18:00 +32°C° 0 mm 2 mps 759 mmHg 13%
    19:00 +29°C° 0 mm 2 mps 759 mmHg 15%
    20:00 +28°C° 0 mm 2 mps 759 mmHg 18%
    21:00 +27°C° 0 mm 2 mps 760 mmHg 20%
    22:00 +25°C° 0 mm 1 mps 760 mmHg 22%
    23:00 +25°C° 0 mm 1 mps 759 mmHg 23%

    27 September, Thursday

    Time Temperature Precipitation Wind Pressure Humidity
    00:00 +24°C° 0 mm 1 mps 759 mmHg 24%
    01:00 +23°C° 0 mm 1 mps 759 mmHg 24%
    02:00 +23°C° 0 mm 1 mps 759 mmHg 25%
    03:00 +23°C° 0 mm 1 mps 759 mmHg 25%
    04:00 +22°C° 0 mm 1 mps 759 mmHg 26%
    05:00 +22°C° 0 mm 1 mps 759 mmHg 26%
    06:00 +23°C° 0 mm 1 mps 759 mmHg 26%
    07:00 +23°C° 0 mm 1 mps 759 mmHg 26%
    08:00 +27°C° 0 mm 1 mps 759 mmHg 22%
    09:00 +30°C° 0 mm 1 mps 759 mmHg 18%
    10:00 +33°C° 0 mm 1 mps 758 mmHg 14%
    11:00 +35°C° 0 mm 1 mps 758 mmHg 12%
    12:00 +37°C° 0 mm 1 mps 758 mmHg 11%
    13:00 +40°C° 0 mm 1 mps 757 mmHg 9%
    14:00 +40°C° 0 mm 2 mps 757 mmHg 9%
    15:00 +40°C° 0 mm 2 mps 756 mmHg 9%
    16:00 +39°C° 0 mm 2 mps 756 mmHg 9%
    17:00 +36°C° 0 mm 2 mps 756 mmHg 12%
    18:00 +32°C° 0 mm 2 mps 756 mmHg 14%
    19:00 +29°C° 0 mm 2 mps 757 mmHg 17%
    20:00 +28°C° 0 mm 2 mps 757 mmHg 19%
    21:00 +27°C° 0 mm 2 mps 757 mmHg 22%
    22:00 +25°C° 0 mm 2 mps 757 mmHg 24%
    23:00 +25°C° 0 mm 1 mps 757 mmHg 25%

    28 September, Friday

    Time Temperature Precipitation Wind Pressure Humidity
    00:00 +24°C° 0 mm 1 mps 757 mmHg 26%
    01:00 +23°C° 0 mm 1 mps 757 mmHg 27%
    02:00 +23°C° 0 mm 1 mps 756 mmHg 28%
    03:00 +22°C° 0 mm 1 mps 756 mmHg 29%
    04:00 +22°C° 0 mm 1 mps 756 mmHg 30%
    05:00 +22°C° 0 mm 1 mps 757 mmHg 31%
    06:00 +23°C° 0 mm 1 mps 757 mmHg 31%
    07:00 +23°C° 0 mm 1 mps 757 mmHg 31%
    08:00 +26°C° 0 mm 1 mps 757 mmHg 27%
    09:00 +29°C° 0 mm 1 mps 756 mmHg 22%
    10:00 +33°C° 0 mm 1 mps 756 mmHg 17%
    11:00 +34°C° 0 mm 1 mps 756 mmHg 15%
    12:00 +36°C° 0 mm 1 mps 756 mmHg 14%
    13:00 +39°C° 0 mm 2 mps 755 mmHg 12%
    14:00 +38°C° 0 mm 2 mps 755 mmHg 13%
    15:00 +38°C° 0 mm 2 mps 755 mmHg 14%
    16:00 +37°C° 0 mm 3 mps 754 mmHg 15%
    17:00 +34°C° 0 mm 3 mps 755 mmHg 21%
    18:00 +29°C° 0 mm 3 mps 755 mmHg 27%
    19:00 +26°C° 0 mm 3 mps 756 mmHg 33%
    20:00 +25°C° 0 mm 3 mps 756 mmHg 37%
    21:00 +23°C° 0 mm 2 mps 756 mmHg 41%
    22:00 +21°C° 0 mm 2 mps 757 mmHg 45%
    23:00 +20°C° 0 mm 2 mps 757 mmHg 48%
    Show more